Weather reports worldwide

Advertisment
Guadalajara, Spain (8226): temperature & dewpoint: 03.12.2019 22:00:00 - 09.12.2019 22:00:00 (CET)Guadalajara, Spain (8226): wind speed: 03.12.2019 22:00:00 - 09.12.2019 22:00:00 (CET)Guadalajara, Spain (8226): wind direction: 03.12.2019 22:00:00 - 09.12.2019 22:00:00 (CET)Guadalajara, Spain (8226): reduced air pressure: 03.12.2019 22:00:00 - 09.12.2019 22:00:00 (CET)Guadalajara, Spain (8226): visibility: 03.12.2019 22:00:00 - 09.12.2019 22:00:00 (CET)Guadalajara, Spain (8226): precipitation: 03.12.2019 22:00:00 - 09.12.2019 22:00:00 (CET)
Date & Time tt [°C] td [°C] ff [km/h] ff [kn] dd ppp [hPa] vv [km] rr [mm]
09.12.2019 22:00:00 - - - - - - - -
09.12.2019 21:00:00 - - - - - - - -
09.12.2019 20:00:00 - - - - - - - -
09.12.2019 19:00:00 4,3 3,6 2 1 NNW 1031,1 2,9 -
09.12.2019 18:00:00 5,3 4,3 4 2 NNE 1030,4 4,9 0,0
09.12.2019 17:00:00 6,2 4,5 5 3 NNE 1029,6 - 0,0
09.12.2019 16:00:00 7,4 5,0 4 2 N 1029,0 2,6 -
09.12.2019 15:00:00 8,3 5,0 2 1 WNW 1028,7 3,3 0,0
09.12.2019 14:00:00 8,0 5,1 4 2 W 1029,1 11 0,0
09.12.2019 13:00:00 5,4 4,5 8 4 WSW 1030,4 8 -
09.12.2019 12:00:00 4,1 3,7 9 5 WSW 1031,5 8 0,0
09.12.2019 11:00:00 4,5 4,1 9 5 SW 1031,3 1,3 0,0
09.12.2019 10:00:00 4,4 4,0 5 3 SSW 1030,7 6 -
09.12.2019 09:00:00 4,0 3,6 5 3 S 1030,6 6 0,0
09.12.2019 08:00:00 4,4 4,3 4 2 E 1029,9 6 0,0
09.12.2019 07:00:00 4,4 4,4 4 2 SSE 1029,6 3,5 -
09.12.2019 06:00:00 4,2 4,2 5 3 S 1028,7 3,1 0,0
09.12.2019 05:00:00 4,0 3,9 4 2 ESE 1029,3 4,1 0,0
09.12.2019 04:00:00 4,8 4,7 2 1 ESE 1028,7 3,7 -
09.12.2019 03:00:00 5,3 5,3 2 1 ESE 1028,3 1,9 0,0
09.12.2019 02:00:00 5,4 5,4 4 2 NE 1028,4 0,3 0,0
09.12.2019 01:00:00 5,2 5,1 4 2 SSW 1027,9 0,5 -
09.12.2019 00:00:00 5,4 5,1 8 4 SE 1027,6 6 0,0
08.12.2019 23:00:00 5,8 5,4 2 1 ESE 1027,5 4,2 0,0
08.12.2019 22:00:00 6,1 5,8 4 2 E 1027,1 3,3 -
08.12.2019 21:00:00 6,0 5,7 4 2 N 1027,2 6 0,0
08.12.2019 20:00:00 6,0 5,7 2 1 SE 1026,5 4,3 0,0
08.12.2019 19:00:00 5,8 5,5 2 1 N 1026,3 - -
08.12.2019 18:00:00 5,9 5,6 4 2 WNW 1026,1 - 0,8
08.12.2019 17:00:00 5,9 5,6 4 2 N 1026,0 3,4 0,8
08.12.2019 16:00:00 5,6 5,3 4 2 NNW 1026,4 2,0 -
08.12.2019 15:00:00 5,6 5,2 2 1 NNW 1025,9 1,7 0,0
08.12.2019 14:00:00 5,6 5,2 2 1 W 1026,1 2,6 0,0
08.12.2019 13:00:00 5,6 4,9 4 2 W 1026,7 7 -
08.12.2019 12:00:00 5,3 5,2 5 3 W 1027,3 11 0,0
08.12.2019 11:00:00 4,3 4,3 5 3 S 1027,6 0,4 0,0
08.12.2019 10:00:00 3,9 3,9 2 1 E 1027,6 0,2 -
08.12.2019 09:00:00 3,6 3,6 4 2 NE 1027,4 0,2 0,0
08.12.2019 08:00:00 3,2 3,1 2 1 W 1027,3 8 0,0
08.12.2019 07:00:00 3,0 2,9 5 3 S 1027,0 8 -
08.12.2019 06:00:00 2,7 2,7 2 1 ESE 1026,5 3,9 0,0
08.12.2019 05:00:00 2,6 2,3 2 1 NE 1026,8 0,1 0,0
08.12.2019 04:00:00 2,9 2,5 4 2 E 1026,7 2,8 -
08.12.2019 03:00:00 3,5 3,2 2 1 ESE 1026,9 3,1 0,0
08.12.2019 02:00:00 3,7 3,1 2 1 ENE 1027,1 4,0 0,0
08.12.2019 01:00:00 4,4 3,8 4 2 E 1026,9 4,3 -
08.12.2019 00:00:00 4,7 4,0 4 2 SSE 1027,1 4,5 0,0
07.12.2019 23:00:00 5,0 4,3 5 3 S 1026,9 7 0,0
07.12.2019 22:00:00 5,4 4,2 2 1 S 1026,4 9 -
07.12.2019 21:00:00 6,3 4,6 4 2 S 1025,7 18 0,0
07.12.2019 20:00:00 7,0 4,6 5 3 S 1025,1 19 0,0
07.12.2019 19:00:00 8,2 4,8 4 2 S 1024,3 20 -
07.12.2019 18:00:00 10,7 5,7 5 3 S 1022,9 20 0,0
07.12.2019 17:00:00 13,8 5,4 5 3 WSW 1021,7 20 0,0
07.12.2019 16:00:00 14,5 5,3 4 2 SW 1021,3 20 -
07.12.2019 15:00:00 13,0 5,4 4 2 NW 1021,8 20 0,0
07.12.2019 14:00:00 12,4 5,5 2 1 WNW 1022,4 20 0,0
07.12.2019 13:00:00 10,9 6,2 2 1 NE 1023,5 20 -
07.12.2019 12:00:00 7,6 5,1 4 2 N 1025,4 20 0,0
07.12.2019 11:00:00 5,5 4,1 2 1 ENE 1026,2 16 0,0
07.12.2019 10:00:00 3,2 2,8 2 1 E 1026,7 12 -
07.12.2019 09:00:00 1,3 0,9 4 2 E 1026,9 7 0,0
07.12.2019 08:00:00 1,6 1,2 4 2 ENE 1026,3 7 0,0
07.12.2019 07:00:00 1,8 1,4 4 2 N 1026,1 9 -
07.12.2019 06:00:00 1,8 1,4 4 2 N 1026,0 12 0,0
07.12.2019 05:00:00 2,6 2,2 4 2 NNW 1025,8 15 0,0
07.12.2019 04:00:00 2,8 2,1 4 2 E 1026,0 14 -
07.12.2019 03:00:00 3,1 2,2 4 2 E 1025,7 14 0,0
07.12.2019 02:00:00 4,3 3,4 2 1 N 1025,2 18 0,0
07.12.2019 01:00:00 4,4 3,7 4 2 SSE 1025,5 19 -
07.12.2019 00:00:00 4,4 3,2 5 3 SSE 1025,8 20 0,0
06.12.2019 23:00:00 5,2 3,8 2 1 N 1025,2 20 0,0
06.12.2019 22:00:00 6,3 4,5 0 0 N 1024,4 20 -
06.12.2019 21:00:00 7,6 5,2 2 1 WNW 1023,7 20 0,0
06.12.2019 20:00:00 8,0 5,5 4 2 S 1023,2 20 0,0
06.12.2019 19:00:00 8,2 4,6 4 2 S 1022,6 20 -
06.12.2019 18:00:00 10,9 5,4 5 3 S 1021,2 20 0,0
06.12.2019 17:00:00 13,8 4,6 4 2 W 1020,2 17 0,0
06.12.2019 16:00:00 13,5 4,9 5 3 WSW 1020,3 13 -
06.12.2019 15:00:00 14,2 5,5 5 3 WSW 1020,0 - 0,0
06.12.2019 14:00:00 12,9 5,8 4 2 NW 1021,0 6 0,0
06.12.2019 13:00:00 11,6 5,9 5 3 NNW 1022,0 20 -
06.12.2019 12:00:00 9,9 6,1 4 2 NNW 1023,2 20 0,0
06.12.2019 11:00:00 7,9 5,2 4 2 NNE 1024,5 20 0,0
06.12.2019 10:00:00 6,4 4,1 5 3 N 1024,6 20 -
06.12.2019 09:00:00 6,2 4,2 5 3 ENE 1024,0 20 0,0
06.12.2019 08:00:00 6,7 4,2 5 3 NE 1023,5 20 0,0
06.12.2019 07:00:00 6,3 4,1 9 5 ENE 1023,2 20 -
06.12.2019 06:00:00 6,7 4,4 2 1 NE 1022,4 20 0,0
06.12.2019 05:00:00 7,1 4,4 4 2 N 1022,2 20 0,0
06.12.2019 04:00:00 7,6 4,7 5 3 N 1022,1 20 -
06.12.2019 03:00:00 7,7 4,6 5 3 NNE 1022,1 20 0,0
06.12.2019 02:00:00 7,2 4,7 2 1 S 1022,4 20 0,0
06.12.2019 01:00:00 7,4 4,7 2 1 ENE 1022,3 20 -
06.12.2019 00:00:00 7,2 4,5 4 2 N 1022,6 20 0,0
05.12.2019 23:00:00 7,7 4,6 5 3 NNE 1022,2 20 0,0
05.12.2019 22:00:00 7,4 4,5 8 4 N 1021,8 20 -
05.12.2019 21:00:00 7,6 4,5 5 3 N 1021,5 20 0,0
05.12.2019 20:00:00 8,3 4,3 8 4 NNE 1020,5 20 0,0
05.12.2019 19:00:00 8,6 4,6 11 6 NE 1019,8 18 -
05.12.2019 18:00:00 9,9 4,9 13 7 NE 1018,9 20 0,0
05.12.2019 17:00:00 11,5 5,4 15 8 NE 1017,9 20 0,0
05.12.2019 16:00:00 12,4 5,5 21 11 NE 1017,0 20 -
05.12.2019 15:00:00 12,6 6,0 9 5 NNE 1016,5 20 0,0
05.12.2019 14:00:00 11,5 5,1 15 8 NE 1017,1 20 0,0
05.12.2019 13:00:00 10,6 4,9 13 7 NE 1017,7 20 -
05.12.2019 12:00:00 9,8 4,6 18 10 NE 1018,3 20 0,0
05.12.2019 11:00:00 9,0 4,4 11 6 NNE 1018,2 20 0,0
05.12.2019 10:00:00 8,4 4,2 15 8 NE 1017,5 20 -
05.12.2019 09:00:00 7,4 3,8 13 7 NE 1017,1 20 0,0
05.12.2019 08:00:00 7,5 3,7 13 7 NE 1016,2 20 0,0
05.12.2019 07:00:00 7,6 3,6 11 6 NE 1015,6 20 -
05.12.2019 06:00:00 7,6 3,4 8 4 NE 1014,5 20 0,0
05.12.2019 05:00:00 7,6 3,3 11 6 NE 1014,1 20 0,0
05.12.2019 04:00:00 7,6 2,9 15 8 NE 1013,9 20 -
05.12.2019 03:00:00 7,8 3,1 16 9 ENE 1013,4 20 0,0
05.12.2019 02:00:00 8,4 2,8 16 9 ENE 1012,8 20 0,0
05.12.2019 01:00:00 8,5 3,5 16 9 ENE 1012,1 20 -
05.12.2019 00:00:00 8,6 3,6 22 12 ENE 1011,5 20 0,0
04.12.2019 23:00:00 8,1 4,1 13 7 ENE 1011,1 20 0,0
04.12.2019 22:00:00 7,6 4,0 5 3 NE 1011,0 20 -
04.12.2019 21:00:00 8,2 4,2 5 3 NE 1010,3 20 0,0
04.12.2019 20:00:00 8,7 4,1 16 9 ENE 1009,7 20 0,0
04.12.2019 19:00:00 9,3 4,3 21 11 ENE 1009,1 20 -
04.12.2019 18:00:00 10,3 4,6 24 13 NE 1008,8 20 0,0
04.12.2019 17:00:00 10,1 4,9 22 12 ENE 1008,3 20 0,0
04.12.2019 16:00:00 10,8 5,1 22 12 ENE 1007,5 20 -
04.12.2019 15:00:00 11,4 5,5 24 13 NE 1006,7 20 0,0
04.12.2019 14:00:00 11,6 6,3 18 10 NE 1006,6 20 0,0
04.12.2019 13:00:00 9,0 5,9 8 4 NNE 1008,1 20 -
04.12.2019 12:00:00 8,3 5,2 13 7 NE 1009,4 20 0,0
04.12.2019 11:00:00 7,3 4,9 9 5 NNE 1010,3 20 0,0
04.12.2019 10:00:00 6,8 4,6 5 3 NNE 1010,8 20 -
04.12.2019 09:00:00 5,4 4,0 4 2 NNE 1010,9 20 0,2
04.12.2019 08:00:00 5,3 3,8 8 4 NE 1011,1 20 0,0
04.12.2019 07:00:00 5,0 3,8 8 4 NE 1011,5 20 -
04.12.2019 06:00:00 5,2 4,0 8 4 NE 1011,7 10 0,6
04.12.2019 05:00:00 5,0 3,7 8 4 NE 1012,4 20 0,0
04.12.2019 04:00:00 4,5 3,5 5 3 N 1013,3 11 -
04.12.2019 03:00:00 4,5 3,3 4 2 N 1013,8 18 0,2
04.12.2019 02:00:00 4,8 3,1 8 4 NNE 1014,4 20 0,0
04.12.2019 01:00:00 5,3 2,6 5 3 NNE 1015,0 20 -
04.12.2019 00:00:00 5,2 2,7 5 3 NNE 1015,6 10 0,2
03.12.2019 23:00:00 5,4 2,0 5 3 NE 1015,6 20 0,0
03.12.2019 22:00:00 5,3 2,5 4 2 NE 1015,3 20 -

tt = temperature
td = dewpoint
ff = wind speed
dd = wind direction
ppp = reduced air pressure
vv = visibility
rr = precipitation

Next stations